Location: Crescent
(42.8242°N, 73.7329°W)
Time: 02:12:26
(UTC+00:00)

Tiros 1 - Pass Details

Date: 22 February 2026
Orbit: 618 x 649 km, 48.4° (Epoch: 13 March)

Event Time Altitude Azimuth Distance (km) Brightness Sun altitude
Rises 12:56:02 0° 255° (WSW) 2,918 10.1 12.0°
Reaches altitude 10° 12:58:23 10° 259° (W) 2,006 9.3 12.4°
Maximum altitude 13:02:58 62° 340° (NNW) 708 7.4 13.1°
Drops below altitude 10° 13:07:30 10° 62° (ENE) 1,993 10.2 13.9°
Sets 13:09:50 0° 66° (ENE) 2,897 11.1 14.3°
